This demonstration page uses our WeatherBlox Daily Observations layout. Learn more.

Left ArrowRight Arrow

Hourly Observations for October 29, 2022

Temp ( °F °C ) Dew Point ( °F °C ) Humidity (%) Winds ( mph kmh ) Pressure ( in mb ) Visibility ( mi km ) Precip ( " mm )
12:56 am 00:56 Clear 43 6.1 40 4.4 89 89 SSW 5 7 30.26 1025 10 16 0.00 0.00
1:56 am 01:56 Clear 43 6.1 40 4.4 89 89 S 6 9 30.25 1024 10 16 0.00 0.00
2:56 am 02:56 Clear 43 6.1 40 4.4 89 89 SSW 6 9 30.24 1024 10 16 0.00 0.00
3:56 am 03:56 Clear 42 5.6 39 3.9 89 89 SSW 7 11 30.24 1024 10 16 0.00 0.00
4:56 am 04:56 Clear 42 5.6 40 4.4 92 92 SW 6 9 30.24 1024 10 16 0.00 0.00
5:56 am 05:56 Clear 41 5 39 3.9 93 93 SSW 8 13 30.24 1024 10 16 0.00 0.00
6:56 am 06:56 Clear 39 3.9 37 2.8 93 93 SSW 6 9 30.26 1025 10 16 0.00 0.00
7:56 am 07:56 Clear 38 3.3 38 3.3 100 100 SSW 6 9 30.26 1025 9 14 0.00 0.00
8:56 am 08:56 Sunny 43 6.1 40 4.4 89 89 SW 7 11 30.26 1025 10 16 0.00 0.00
9:56 am 09:56 Sunny 48 8.9 42 5.6 80 80 SW 8 13 30.26 1025 10 16 0.00 0.00
10:56 am 10:56 Sunny 53 11.7 44 6.7 71 71 S 10 17 30.25 1025 10 16 0.00 0.00
11:56 am 11:56 Sunny 60 15.6 45 7.2 57 57 SSW 13 20 30.23 1024 10 16 0.00 0.00
12:56 pm 12:56 Sunny 63 17.2 45 7.2 52 52 SSW 14 22 30.21 1023 10 16 0.00 0.00
1:56 pm 13:56 Sunny 65 18.3 44 6.7 47 47 SW 15 24 30.17 1022 10 16 0.00 0.00
2:56 pm 14:56 Sunny 67 19.4 44 6.7 44 44 SSW 12 19 30.13 1020 10 16 0.00 0.00
3:56 pm 15:56 Sunny 68 20 44 6.7 42 42 S 15 24 30.11 1020 10 16 0.00 0.00
4:56 pm 16:56 Sunny 67 19.4 44 6.7 44 44 S 13 20 30.09 1019 10 16 0.00 0.00
5:56 pm 17:56 Sunny 64 17.8 44 6.7 48 48 SSW 7 11 30.10 1019 10 16 0.00 0.00
6:56 pm 18:56 Clear 60 15.6 42 5.6 51 51 SSW 6 9 30.11 1020 10 16 0.00 0.00
7:56 pm 19:56 Clear 53 11.7 42 5.6 66 66 SSE 6 9 30.13 1020 10 16 0.00 0.00
8:56 pm 20:56 Clear 54 12.2 42 5.6 64 64 S 6 9 30.12 1020 10 16 0.00 0.00
9:56 pm 21:56 Clear 51 10.6 42 5.6 71 71 S 8 13 30.11 1020 10 16 0.00 0.00
10:56 pm 22:56 Clear 48 8.9 41 5 76 76 S 9 15 30.11 1020 10 16 0.00 0.00
11:56 pm 23:56 Clear 48 8.9 40 4.4 73 73 SSW 7 11 30.10 1019 10 16 0.00 0.00

Powered by AerisWeather